STARLINK-32206 (60273 NORAD) Tracking and Keplerian Element Data

This shows tracking and keplerian element data for the satellite.

Feedback or suggestion? Click here.




ElementValue
Catalog60273
NameSTARLINK-32206
Epoch Orbit1306
Epoch Day286.27862211
Epoch Year2024
RAAN280.6913
Inclination53.158
Eccentricity0.0001239
Argument of Perigee86.3789
Mean Anonmoly273.7355
Mean Motion15.34215331
Decay Rate2.919E-05
L11 60273U 24131U 24286.27862211 .00002919 00000+0 98054-4 0 9990
L22 60273 53.1580 280.6913 0001239 86.3789 273.7355 15.34215331 13067



Live tracking and technical data element details for STARLINK-32206 (NORAD 60273). STARLINK-32206 can be tracked NOW for your location showing map with azimuth and elevation plus other details from your city location.







IsCatalogInMostPopularTable: catalog: 60273, numindb: 11
Update: records affected: 1



GetName: 60273 STARLINK-32206

Hit Count: updated at: Thu, 23 Jan 2025 14:23:09 GMT